Regional Weather Roundup
Issued by NWS

Home | Current Version | Previous Version | Graphics & Text | Print | Product List | Glossary On
Versions: 1 2 3 4 5 6 7 8 9 10 11 12 13 14 15 16 17 18 19 20 21 22 23 24 25 26 27 28 29 30 31 32 33 34 35 36 37 38 39 40 41 42 43 44 45 46 47 48 49 50
000
ASUS45 KABQ 280610
RWRNM
NEW MEXICO REGIONAL WEATHER ROUNDUP
NATIONAL WEATHER SERVICE ALBUQUERQUE NM
1200 AM MDT TUE MAR 28 2017

NOTE: "FAIR" MEANS FEW OR NO CLOUDS BELOW 12,000 FEET AGL WITH NO
       SIGNIFICANT WEATHER OR OBSTRUCTIONS TO VISION.

      THIS PRODUCT IS RELEASED AS TWO VERSIONS.  ONE VERSION NEAR
      THE TOP OF THE HOUR CONTAINING PRELIMINARY DATA FROM ALBUQUERQUE
      AND OTHER STATIONS.  A FINAL VERSION WITH ADDITIONAL DATA IS
      ISSUED ABOUT 10 MINUTES AFTER THE HOUR.

NMZ501-503-504-510>518-280700-
NORTHWEST PLATEAU/NORTHCENTRAL MOUNTAINS

CITY           SKY/WX    TMP DP  RH WIND       PRES   REMARKS
FARMINGTON     FAIR      41  37  86 NE9       29.85S
6HR MIN TEMP:  41; 6HR MAX TEMP:  58; 6HR PCP: TRACE;

LOS ALAMOS     FAIR      41  37  84 CALM      29.92F
SANTA FE       CLOUDY    45  41  86 N8        29.88F
6HR MIN TEMP:  45; 6HR MAX TEMP:  63; 6HR PCP: TRACE;

TAOS             N/A     39  34  81 CALM      29.94R
ANGEL FIRE     CLOUDY    36  32  85 CALM      29.96R

$$
NMZ402-403-502-505>509-280700-
WESTCENTRAL MOUNTAINS/SOUTHWEST MOUNTAINS

CITY           SKY/WX    TMP DP  RH WIND       PRES   REMARKS
GALLUP         CLOUDY    41  33  73 W17G23    29.91R
6HR MIN TEMP:  41; 6HR MAX TEMP:  54; 6HR PCP: TRACE;

GRANTS         FAIR      35  30  83 SE3       29.92S
SILVER CITY    CLOUDY    50  29  43 NW6       29.87F

$$
NMZ407-409-411-412-280700-
SOUTHERN DESERTS

CITY           SKY/WX    TMP DP  RH WIND       PRES   REMARKS
DEMING         CLOUDY    62  29  28 W7        29.83S
6HR MIN TEMP:  62; 6HR MAX TEMP:  76;

LAS CRUCES     FAIR      64  29  26 W10       29.84S
HOLLOMAN AFB   MOCLDY    63  37  39 S7        29.82S
ALAMOGORDO     MOCLDY    64  27  24 S10       29.81S
T OR C         MOCLDY    61  28  28 W6        29.81S
6HR MIN TEMP:  60; 6HR MAX TEMP:  73;


$$
NMZ519>523-280700-
CENTRAL VALLEYS/CENTRAL HIGHLANDS

CITY           SKY/WX    TMP DP  RH WIND       PRES   REMARKS
ALBUQUERQUE    MOCLDY    52  38  58 CALM      29.86F
6HR MIN TEMP:  52; 6HR MAX TEMP:  67; 6HR PCP: TRACE;

MORIARTY ARPT  CLOUDY    49  37  61 N3        29.89F
6HR MIN TEMP:  48; 6HR MAX TEMP:  65;

CLINES CORNERS CLOUDY    46  31  55 N7        29.91F
6HR MIN TEMP:  45; 6HR MAX TEMP:  59;

BELEN          FAIR      47  33  59 N7        29.87S
6HR MIN TEMP:  47; 6HR MAX TEMP:  67;

SOCORRO        CLOUDY    56  33  41 N7        29.84R
6HR MIN TEMP:  56; 6HR MAX TEMP:  71;


$$
NMZ524>526-539-540-280700-
SOUTHCENTRAL MOUNTAINS

CITY           SKY/WX    TMP DP  RH WIND       PRES   REMARKS
RUIDOSO        CLOUDY    55  27  33 W20G31    29.94S

$$
NMZ527>531-280700-
NORTHEAST HIGHLANDS/NORTHEAST PLAINS

CITY           SKY/WX    TMP DP  RH WIND       PRES   REMARKS
LAS VEGAS      LGT RAIN  51  29  42 W9        29.89S
6HR MIN TEMP:  49; 6HR MAX TEMP:  60; 6HR PCP: TRACE;

RATON          LGT RAIN  49  35  58 CALM      29.86S
6HR MIN TEMP:  48; 6HR MAX TEMP:  60; 6HR PCP: TRACE;

CLAYTON        FAIR      49  39  68 SE13      29.86R
6HR MIN TEMP:  49; 6HR MAX TEMP:  66;


$$
NMZ532>537-280700-
EASTCENTRAL PLAINS

CITY           SKY/WX    TMP DP  RH WIND       PRES   REMARKS
TUCUMCARI      MOCLDY    64  32  30 S21G26    29.77F
6HR MIN TEMP:  62; 6HR MAX TEMP:  75;

CANNON AFB     MOCLDY    56  37  48 SE15      29.84S
6HR MIN TEMP:  54; 6HR MAX TEMP:  71;

CLOVIS AIRPORT FAIR      55  34  44 SE14      29.85S

$$
NMZ028-029-538-280700-
SOUTHEAST PLAINS

CITY           SKY/WX    TMP DP  RH WIND       PRES   REMARKS
ROSWELL        FAIR      67  25  20 S10         N/A
6HR MIN TEMP:  67; 6HR MAX TEMP:  77;

ARTESIA        FAIR      63  28  27 S10       29.79F
CARLSBAD       FAIR      66  27  23 S3        29.77F
6HR MIN TEMP:  58; 6HR MAX TEMP:  81;

HOBBS          FAIR      52  28  40 E7        29.82F


$$




USA.gov is the U.S. government's official web portal to all federal, state and local government web resources and services.